Regional Weather Roundup
Issued by NWS

Home | Current Version | Previous Version | Graphics & Text | Print | Product List | Glossary Off
Versions: 1 2 3 4 5 6 7 8 9 10 11 12 13 14 15 16 17 18 19 20 21 22 23 24 25 26 27 28 29 30 31 32 33 34 35 36 37 38 39 40 41 42 43 44 45 46 47 48 49 50

000
ASUS43 KMKX 310300
RWRWI

WISCONSIN REGIONAL WEATHER ROUNDUP
NATIONAL WEATHER SERVICE MILWAUKEE/SULLIVAN WI
1000 PM CDT MON MAY 30 2016

NOTE: "FAIR" INDICATES FEW OR NO CLOUDS BELOW 12,000 FEET WITH NO
SIGNIFICANT WEATHER AND/OR OBSTRUCTIONS TO VISIBILITY.

WIZ001-002-006>008-014>016-023>028-310400-
NORTHWEST WISCONSIN

CITY           SKY/WX    TMP DP  RH WIND       PRES   REMARKS
SUPERIOR ARPT  CLOUDY    57  44  62 NE9       29.94S
ASHLAND        CLOUDY    65  47  52 NE3       29.98R
HAYWARD        PTCLDY    61  58  90 CALM      29.96R
SIREN          PTCLDY    66  56  70 CALM      29.94R
CUMBERLAND     CLOUDY    68  52  56 SE5       29.96R
RICE LAKE      CLOUDY    71  54  56 CALM      29.97R
CHETEK         CLOUDY    70  57  63 SE3       29.95R
LADYSMITH      MOCLDY    66  58  74 E3        29.99R
EAU CLAIRE     NOT AVBL
MENOMONIE      CLOUDY    70  55  60 E3        29.94R
NEW RICHMOND   PTCLDY    70  54  56 SE7       29.94R
OSCEOLA        PTCLDY    69  56  63 SE7       29.94S
$$

WIZ003>005-009-010-017-018-310400-
NORTH CENTRAL WISCONSIN

CITY           SKY/WX    TMP DP  RH WIND       PRES   REMARKS
MANITOWISH WTR NOT AVBL
ARBOR VITAE    PTCLDY    63  52  68 CALM      30.01R
WOODRUFF       PTCLDY    63  52  68 CALM      30.01R
RHINELANDER    CLOUDY    57  53  86 CALM      30.02R
EAGLE RIVER      N/A     57  50  79 CALM      30.01R
LAND O LAKES   CLEAR     59  49  68 CALM      30.02R
PHILLIPS       PTCLDY    64  56  73 CALM      29.98R
TOMAHAWK       CLOUDY    63  55  77 CALM      30.01R
MEDFORD        PTCLDY    64  56  76 S3        30.00R
MERRILL        MOCLDY    63  59  85 CALM      30.00R
$$

WIZ029-030-035-036-043>047-310400-
CENTRAL WISCONSIN

CITY           SKY/WX    TMP DP  RH WIND       PRES   REMARKS
WAUSAU         PTCLDY    67  56  67 CALM      29.99R
MOSINEE        CLEAR     63  54  72 SE3       30.01R
MARSHFIELD     CLOUDY    69  53  56 CALM      29.98R
STEVENS POINT  CLEAR     60  54  80 CALM      30.00R
WAUPACA        CLOUDY    65  58  79 CALM      29.99R
WAUTOMA        CLOUDY   N/A N/A N/A CALM      29.99R
WISC RAPIDS    CLOUDY    63  52  67 CALM      30.00R
CAMP DOUGLAS   NOT AVBL
$$

WIZ011>013-019>022-031-037>040-048>050-310400-
NORTHEAST WISCONSIN

CITY           SKY/WX    TMP DP  RH WIND       PRES   REMARKS
ANTIGO         CLOUDY    63  56  78 CALM      30.02R
SHAWANO        CLEAR     65  55  70 CALM      29.99R
OCONTO         CLEAR     61  61 100 CALM      29.97R
STURGEON BAY   NOT AVBL
GREEN BAY      CLEAR     66  59  78 SW3       29.99R
MANITOWOC      NOT AVBL
APPLETON       PTCLDY   N/A N/A N/A VRB3      29.99R
CLINTONVILLE   CLEAR     64  54  68 CALM      29.99R
OSHKOSH        CLEAR     66  53  63 CALM      29.99R
$$

WIZ032>034-041-042-053>061-310400-
SOUTHWEST WISCONSIN

CITY           SKY/WX    TMP DP  RH WIND       PRES   REMARKS
LA CROSSE      CLOUDY    72  56  57 E6        29.93S
SPARTA         MOCLDY    67  57  69 E5        29.98R
VIROQUA        CLOUDY    70  51  50 SE6       29.98R
BOSCOBEL       CLOUDY    66  61  84 CALM      29.95F
PRAIRIE DU CHI CLOUDY    71  55  56 E3        29.93S
PLATTEVILLE    CLOUDY    71  52  50 E8        29.97S
$$

WIZ056-057-062-063-064-067-068-310400-
SOUTH CENTRAL WISCONSIN

CITY           SKY/WX    TMP DP  RH WIND       PRES   REMARKS
REEDSBURG      PTCLDY    67  57  68 CALM      29.98R HAZE
BARABOO/DELLS  PTCLDY    66  54  65 CALM      29.98S
LONE ROCK      NOT AVBL
MINERAL POINT  CLOUDY    72  48  43 E6        29.98S
MADISON        CLOUDY    65  53  65 CALM      29.98R
MIDDLETON      CLOUDY    64  57  79 CALM      29.99S
WATERTOWN      CLOUDY    65  56  73 E5        29.99R
MONROE         CLEAR     72  46  40 NE6       29.98S
JANESVILLE     NOT AVBL
$$

WIZ051-052-058>065-066-070>072-310400-
SOUTHEAST WISCONSIN

CITY           SKY/WX    TMP DP  RH WIND       PRES   REMARKS
MILWAUKEE      PTCLDY    65  57  75 CALM      30.00R
WAUKESHA       PTCLDY    63  54  72 E3        30.01R
MILWAUKEE/TIMM CLEAR     68  52  56 CALM      30.01R
RACINE         CLEAR     63  56  78 CALM      30.02R
BURLINGTON     CLEAR     66  56  70 CALM      30.00R
KENOSHA        CLEAR     61  56  83 NE5       30.01R
FOND DU LAC    CLEAR     66  59  78 SE6       30.00R
SHEBOYGAN      CLEAR     61  55  81 CALM      30.00S
WEST BEND      CLOUDY    63  57  82 CALM      30.01R
JUNEAU         CLOUDY    67  56  67 SE7       30.01R
$$

LSZ147-162-310400-
LAKE SUPERIOR

STATION/POSITION TIME  TEMP    WIND        PRES    WAVE
                       AIR SEA DIR/SP/G            HT/PER
                 (UTC) (F)     (DEG/KT/KT) (MB)    (FT/S)
W MID LAKE BUOY  0150   47 38   60/ 17/ 21 1015.4R   0
DEVILS ISLAND    0200   67     120/ 11/ 12 1014.4R
SAXON HARBOR     0240   64     160/  1/  4 1014.2R
$$

LMZ867-665-643>646-310400-
LAKE MICHIGAN

STATION/POSITION TIME  TEMP    WIND        PRES    WAVE
                       AIR SEA DIR/SP/G            HT/PER
                 (UTC) (F)     (DEG/KT/KT) (MB)    (FT/S)
CHAMBERS ISLAND  0200   66     180/  3/  5 1014.6
N MID LAKE BUOY  0150   54 50  220/  6/ 10 1014.6R   1/ 3
NORTHPORT PIER   0200   63     200/  4/  5 1014.2S
KEWAUNEE LAKESHO 0200                      1014.6R
SHEBOYGAN LAKESH 0200   65     180/  8/  9 1015.9R
PORT WASHINGTON  0240   61     200/  3/  4 1016.6R
S MID LAKE BUOY  0150   61 58   80/  6/  6 1015.3R   0
KENOSHA   LAKESH 0200   61      10/  3/  4 1015.2R
$$

TC  - TEMPERATURE IN CELSIUS
VSB - VISIBILITY IN STATUTE MILES
WCI - WIND CHILL INDEX
HX  - HEAT INDEX





USA.gov is the U.S. government's official web portal to all federal, state and local government web resources and services.